7 * 24
多渠道服务支持
STARLINK-32322 是 SpaceX Starlink 卫星互联网项目中的一颗低轨卫星。该卫星属于 Starlink 群体的一部分,旨在为全球用户提供高速互联网服务。它运行在近地轨道,配备先进通信设备,支持宽带数据传输。该计划通过部署大量卫星,提升网络覆盖范围,尤其在偏远地区。STARLINK-32322 的发射和运行有助于增强 Starlink 系统的稳定性和服务能力。
美国
(US)
| 数据来源 | 国际轨道数据 |
| 星历时间: | 2025-12-19T18:15:28+0800 1天前 查看轨道信息 |
| 半长轴: | 6853.377km |
| 偏心率: | 0.0000925 |
| 轨道倾角: | 53.161° |
| 近地点辐角 | 91.842° |
| 升交点赤经 | 114.470° |
| 平近点角 | 268.269° |
| 近地点: | 474.606km |
| 远地点: | 475.874km |
| 周期: | 94.106分钟 |
| 每日圈数: | 15.301917 |